Waarnemingen

Advertentie
Mijn weer
Gilze-Rijen, Nederland (6350): temperatuur & dauwpunt: 13.10.2017 12:00:00 - 19.10.2017 12:00:00 (CEST)Gilze-Rijen, Nederland (6350): temperatuur 5cm: 13.10.2017 12:00:00 - 19.10.2017 12:00:00 (CEST)Gilze-Rijen, Nederland (6350): windsnelheid & windstoten: 13.10.2017 12:00:00 - 19.10.2017 12:00:00 (CEST)Gilze-Rijen, Nederland (6350): windrichting: 13.10.2017 12:00:00 - 19.10.2017 12:00:00 (CEST)Gilze-Rijen, Nederland (6350): luchtdruk: 13.10.2017 12:00:00 - 19.10.2017 12:00:00 (CEST)Gilze-Rijen, Nederland (6350): zicht: 13.10.2017 12:00:00 - 19.10.2017 12:00:00 (CEST)Gilze-Rijen, Nederland (6350): neerslag: 13.10.2017 12:00:00 - 19.10.2017 12:00:00 (CEST)
Datum & Tijd tt [°C] td [°C] tt 5cm [°C] ff [km/u] ff [kn] fx [km/u] fx [kn] dd ppp [hPa] vv [km] rr [mm]
19.10.2017 12:00:00 17,6 13,3 18,6 11 6 18 10 ZO 1010,4 10 0,0
19.10.2017 11:00:00 15,1 12,3 15,2 9 5 14 8 ZO 1010,7 10 0,0
19.10.2017 10:00:00 13,5 11,7 13,1 8 4 14 8 ZZO 1011,0 10 0,0
19.10.2017 09:00:00 12,2 11,0 11,5 9 5 18 10 OZO 1010,6 8 0,0
19.10.2017 08:00:00 11,5 10,9 9,3 5 3 14 8 ZO 1010,5 5 0,0
19.10.2017 07:00:00 11,2 11,0 8,9 4 2 7 4 ZO 1010,7 5 0,0
19.10.2017 06:00:00 10,1 9,8 7,7 4 2 7 4 ZO 1011,0 4,3 0,0
19.10.2017 05:00:00 11,1 10,9 7,2 4 2 7 4 ZZO 1011,4 4,4 0,0
19.10.2017 04:00:00 11,6 11,4 8,6 5 3 11 6 ZZO 1011,7 2,9 0,0
19.10.2017 03:00:00 11,7 11,5 8,3 5 3 7 4 ZO 1011,9 3,3 0,0
19.10.2017 02:00:00 11,0 10,9 7,3 4 2 4 2 ZO 1011,8 3,4 0,0
19.10.2017 01:00:00 12,4 12,2 8,5 4 2 7 4 ZZO 1012,0 5 0,0
19.10.2017 00:00:00 11,7 11,5 8,2 5 3 7 4 Z 1012,1 4,0 0,0
18.10.2017 23:00:00 12,6 12,4 9,1 2 1 7 4 OZO 1012,2 4,4 0,0
18.10.2017 22:00:00 12,6 12,1 9,8 5 3 7 4 Z 1012,0 6 0,0
18.10.2017 21:00:00 13,2 12,5 10,4 2 1 4 2 Z 1012,1 4,4 0,0
18.10.2017 20:00:00 13,5 13,2 10,3 0 0 4 2 N 1012,1 6 0,0
18.10.2017 19:00:00 14,7 13,6 11,7 4 2 7 4 ONO 1011,8 10 0,0
18.10.2017 18:00:00 17,5 14,1 16,6 2 1 7 4 Z 1011,8 10 0,0
18.10.2017 17:00:00 20,4 13,5 21,4 2 1 7 4 - 1011,7 10 0,0
18.10.2017 16:00:00 20,3 13,0 21,4 5 3 7 4 Z 1011,9 10 0,0
18.10.2017 15:00:00 19,7 12,6 21,4 5 3 11 6 - 1012,1 10 0,0
18.10.2017 14:00:00 18,8 13,0 20,8 5 3 11 6 - 1012,7 10 0,0
18.10.2017 13:00:00 17,7 13,3 19,3 5 3 - - - 1012,9 8 -
18.10.2017 12:00:00 15,3 12,6 17,4 9 5 18 10 Z 1013,1 6 0,0
18.10.2017 11:00:00 13,3 12,5 14,0 9 5 14 8 ZZO 1013,5 4,8 0,0
18.10.2017 10:00:00 12,6 12,3 12,7 9 5 - - ZZO 1013,6 0,7 -
18.10.2017 09:00:00 11,8 11,0 10,6 5 3 11 6 ZO 1013,8 6 0,0
18.10.2017 08:00:00 10,9 10,1 9,6 9 5 18 10 O 1013,4 7 0,0
18.10.2017 07:00:00 11,3 10,2 10,1 11 6 14 8 O 1013,8 9 0,0
18.10.2017 06:00:00 12,7 10,7 12,0 11 6 18 10 ONO 1014,5 10 0,0
18.10.2017 05:00:00 13,1 11,1 12,8 11 6 18 10 NO 1015,0 10 0,0
18.10.2017 04:00:00 13,3 11,4 12,9 13 7 18 10 NO 1015,5 10 0,0
18.10.2017 03:00:00 12,9 11,5 12,5 11 6 18 10 NNO 1016,0 9 0,0
18.10.2017 02:00:00 12,5 11,4 12,1 9 5 11 6 NNO 1016,2 9 0,0
18.10.2017 01:00:00 11,8 11,0 10,5 2 1 7 4 ONO 1016,4 9 0,0
18.10.2017 00:00:00 11,5 10,7 9,9 5 3 7 4 ONO 1017,2 10 0,0
17.10.2017 23:00:00 12,4 11,4 10,9 5 3 7 4 ONO 1017,6 10 0,0
17.10.2017 22:00:00 12,2 11,5 11,4 4 2 7 4 - 1018,0 9 0,0
17.10.2017 21:00:00 11,3 10,6 9,1 0 0 4 2 N 1018,5 10 0,0
17.10.2017 20:00:00 12,1 11,2 9,3 2 1 7 4 NW 1019,1 10 0,0
17.10.2017 19:00:00 12,8 11,4 11,4 0 0 7 4 N 1018,8 10 0,0
17.10.2017 18:00:00 14,7 11,3 13,6 4 2 7 4 W 1019,0 10 0,0
17.10.2017 17:00:00 15,5 11,4 15,4 5 3 14 8 W 1019,6 10 0,0
17.10.2017 16:00:00 15,8 11,4 16,0 8 4 18 10 WZW 1020,1 10 0,0
17.10.2017 15:00:00 16,0 11,2 16,1 9 5 18 10 WZW 1020,7 10 0,0
17.10.2017 14:00:00 15,9 11,0 16,3 11 6 22 12 WZW 1021,4 10 0,0
17.10.2017 13:00:00 15,8 11,6 16,2 13 7 22 12 ZW 1021,9 10 0,0
17.10.2017 12:00:00 15,2 12,0 15,3 11 6 22 12 ZZW 1021,9 10 0,0
17.10.2017 11:00:00 14,3 12,0 14,0 11 6 14 8 ZZW 1021,9 10 0,0
17.10.2017 10:00:00 13,3 11,3 12,6 9 5 14 8 ZZW 1022,0 10 0,0
17.10.2017 09:00:00 12,6 10,8 11,3 11 6 14 8 ZZW 1021,8 10 0,0
17.10.2017 08:00:00 11,0 9,5 8,7 8 4 14 8 Z 1021,5 10 0,0
17.10.2017 07:00:00 11,5 9,8 9,5 8 4 11 6 ZZW 1021,5 10 0,0
17.10.2017 06:00:00 13,6 10,8 11,8 9 5 14 8 ZZW 1021,3 10 0,0
17.10.2017 05:00:00 14,2 12,3 12,0 5 3 18 10 ZZW 1021,2 10 0,0
17.10.2017 04:00:00 14,4 13,4 11,9 4 2 11 6 - 1021,2 10 0,0
17.10.2017 03:00:00 14,0 13,6 11,1 5 3 7 4 W 1021,1 9 0,0
17.10.2017 02:00:00 15,3 13,6 13,9 5 3 14 8 WZW 1020,6 10 0,0
17.10.2017 01:00:00 16,3 13,8 14,9 8 4 14 8 ZZW 1020,3 10 0,0
17.10.2017 00:00:00 17,3 14,0 16,1 9 5 22 12 ZZW 1020,0 10 0,0
16.10.2017 23:00:00 18,5 14,3 17,3 15 8 25 14 Z 1019,7 10 0,0
16.10.2017 22:00:00 19,3 14,1 17,5 15 8 22 12 Z 1019,5 10 0,0
16.10.2017 21:00:00 19,7 14,2 18,1 15 8 22 12 Z 1019,3 10 0,0
16.10.2017 20:00:00 19,4 14,8 17,9 13 7 18 10 Z 1018,9 10 0,0
16.10.2017 19:00:00 19,7 15,3 17,7 9 5 18 10 Z 1018,8 10 0,0
16.10.2017 18:00:00 22,1 15,9 20,5 13 7 25 14 ZZO 1018,5 10 0,0
16.10.2017 17:00:00 24,0 16,2 23,6 16 9 25 14 ZZO 1018,8 10 0,0
16.10.2017 16:00:00 24,5 16,7 24,8 16 9 25 14 ZZO 1019,0 10 0,0
16.10.2017 15:00:00 24,9 16,4 25,7 16 9 25 14 Z 1019,7 10 0,0
16.10.2017 14:00:00 24,5 16,6 25,4 15 8 22 12 Z 1020,2 10 0,0
16.10.2017 13:00:00 23,1 16,4 24,1 16 9 25 14 Z 1020,6 10 0,0
16.10.2017 12:00:00 21,7 15,7 22,2 16 9 29 16 ZZW 1021,0 10 0,0
16.10.2017 11:00:00 19,8 15,3 20,1 15 8 22 12 Z 1021,0 10 0,0
16.10.2017 10:00:00 18,0 14,8 17,7 8 4 14 8 Z 1020,7 10 0,0
16.10.2017 09:00:00 16,0 13,9 14,3 5 3 22 12 Z 1020,6 10 0,0
16.10.2017 08:00:00 17,0 13,9 15,4 9 5 18 10 ZZW 1020,0 10 0,0
16.10.2017 07:00:00 16,6 14,2 15,6 13 7 22 12 ZZW 1019,8 10 0,0
16.10.2017 06:00:00 15,6 13,9 14,8 5 3 18 10 ZO 1019,6 10 0,0
16.10.2017 05:00:00 16,0 13,9 15,1 13 7 18 10 Z 1020,3 10 0,0
16.10.2017 04:00:00 14,4 13,1 13,1 11 6 14 8 Z 1020,2 10 0,0
16.10.2017 03:00:00 13,7 12,5 12,5 11 6 14 8 Z 1020,5 10 0,0
16.10.2017 02:00:00 14,0 12,5 12,4 11 6 14 8 Z 1020,7 10 0,0
16.10.2017 01:00:00 14,7 12,7 13,2 11 6 18 10 Z 1020,7 10 0,0
16.10.2017 00:00:00 14,8 12,5 12,7 11 6 18 10 Z 1020,7 10 0,0
15.10.2017 23:00:00 15,2 12,1 12,9 11 6 18 10 Z 1020,7 10 0,0
15.10.2017 22:00:00 15,2 11,9 13,1 11 6 22 12 Z 1020,5 10 0,0
15.10.2017 21:00:00 16,1 12,2 12,2 11 6 18 10 Z 1020,2 10 0,0
15.10.2017 20:00:00 17,1 12,9 14,3 11 6 14 8 ZZO 1019,9 10 0,0
15.10.2017 19:00:00 18,3 13,5 15,3 9 5 18 10 ZZO 1019,6 10 0,0
15.10.2017 18:00:00 20,9 13,9 19,8 11 6 18 10 ZZO 1019,5 10 0,0
15.10.2017 17:00:00 22,7 13,7 22,5 13 7 22 12 Z 1019,8 10 0,0
15.10.2017 16:00:00 23,1 13,5 23,7 15 8 22 12 Z 1020,3 10 0,0
15.10.2017 15:00:00 22,7 13,6 23,9 15 8 22 12 Z 1020,8 10 0,0
15.10.2017 14:00:00 22,0 14,3 23,1 16 9 25 14 Z 1021,3 10 0,0
15.10.2017 13:00:00 20,8 14,8 22,0 13 7 22 12 Z 1021,7 10 0,0
15.10.2017 12:00:00 18,6 14,1 19,5 13 7 22 12 Z 1022,2 10 0,0
15.10.2017 11:00:00 16,4 13,5 16,9 11 6 18 10 Z 1022,7 10 0,0
15.10.2017 10:00:00 13,9 12,6 13,5 9 5 14 8 ZZO 1022,9 10 0,0
15.10.2017 09:00:00 11,6 11,2 10,4 8 4 11 6 ZZO 1023,2 8 0,0
15.10.2017 08:00:00 10,8 10,6 7,1 5 3 11 6 ZZO 1023,1 5 0,0
15.10.2017 07:00:00 11,0 10,8 6,8 8 4 11 6 ZZO 1023,3 4,5 0,0
15.10.2017 06:00:00 10,7 10,5 5,6 8 4 11 6 ZZO 1023,4 5 0,0
15.10.2017 05:00:00 9,4 9,1 6,2 4 2 4 2 ZZO 1023,8 0,5 0,0
15.10.2017 04:00:00 11,0 10,6 8,0 2 1 11 6 ZZO 1023,9 2,0 0,0
15.10.2017 03:00:00 11,2 11,0 6,7 5 3 7 4 ZZO 1024,2 3,0 0,0
15.10.2017 02:00:00 11,5 11,3 9,6 2 1 7 4 OZO 1024,5 2,8 0,0
15.10.2017 01:00:00 12,2 11,9 8,5 5 3 7 4 Z 1024,8 5 0,0
15.10.2017 00:00:00 12,4 12,2 9,0 2 1 7 4 ZZO 1025,0 3,1 0,0
14.10.2017 23:00:00 11,8 11,6 7,9 4 2 4 2 Z 1025,2 5 0,0
14.10.2017 22:00:00 12,3 12,1 9,4 4 2 7 4 Z 1025,7 3,9 0,0
14.10.2017 21:00:00 13,0 12,8 8,8 0 0 4 2 N 1026,0 0,6 0,0
14.10.2017 20:00:00 14,3 13,9 10,4 2 1 4 2 NNW 1025,9 1,9 0,0
14.10.2017 19:00:00 16,2 14,4 13,8 4 2 7 4 ZW 1025,6 10 0,0
14.10.2017 18:00:00 19,7 15,0 19,7 4 2 11 6 ZW 1025,5 10 0,0
14.10.2017 17:00:00 20,1 14,9 20,2 11 6 25 14 WZW 1025,5 10 0,0
14.10.2017 16:00:00 20,8 15,0 21,5 13 7 25 14 ZW 1025,2 10 0,0
14.10.2017 15:00:00 20,3 14,9 21,7 15 8 25 14 ZZW 1025,7 10 0,0
14.10.2017 14:00:00 19,7 14,6 21,4 15 8 25 14 ZW 1025,9 10 0,0
14.10.2017 13:00:00 18,8 14,7 - 18 10 25 14 ZZW 1026,5 14 0,0
14.10.2017 12:00:00 18,2 14,7 - 11 6 22 12 ZW 1026,7 17 0,0
14.10.2017 11:00:00 16,7 13,9 - 11 6 18 10 ZZW 1026,6 15 0,0
14.10.2017 10:00:00 15,0 13,5 15,2 11 6 18 10 Z 1026,4 10 0,0
14.10.2017 09:00:00 13,2 12,5 12,6 11 6 14 8 ZZW 1026,0 8 0,0
14.10.2017 08:00:00 12,6 11,9 11,7 11 6 14 8 ZZW 1025,7 7 0,0
14.10.2017 07:00:00 12,1 11,5 11,1 8 4 14 8 ZZW 1025,6 7 0,0
14.10.2017 06:00:00 12,9 12,4 11,6 11 6 14 8 ZZW 1025,3 7 0,0
14.10.2017 05:00:00 13,3 12,6 12,4 9 5 18 10 ZZW 1025,3 7 0,0
14.10.2017 04:00:00 13,5 12,7 12,7 11 6 18 10 ZZW 1025,2 9 0,0
14.10.2017 03:00:00 13,7 12,9 12,8 11 6 18 10 ZZW 1025,3 8 0,0
14.10.2017 02:00:00 14,1 13,0 13,3 13 7 18 10 ZZW 1025,2 10 0,0
14.10.2017 01:00:00 14,4 13,1 13,5 11 6 18 10 ZZW 1025,0 10 0,0
14.10.2017 00:00:00 14,7 13,2 13,5 9 5 14 8 ZZW 1024,9 10 0,0
13.10.2017 23:00:00 15,1 13,1 14,2 11 6 18 10 ZZW 1024,7 10 0,0
13.10.2017 22:00:00 15,8 13,4 14,7 13 7 18 10 ZZW 1024,6 10 0,0
13.10.2017 21:00:00 16,1 13,5 15,1 11 6 14 8 ZZW 1024,5 10 0,0
13.10.2017 20:00:00 14,7 13,1 13,4 8 4 11 6 Z 1024,5 10 0,0
13.10.2017 19:00:00 16,8 13,6 15,7 9 5 18 10 ZZW 1024,3 10 0,0
13.10.2017 18:00:00 18,2 13,7 17,9 11 6 25 14 ZW 1024,3 10 0,0
13.10.2017 17:00:00 18,2 13,8 17,9 15 8 29 16 WZW 1024,4 10 0,0
13.10.2017 16:00:00 18,8 13,9 18,6 13 7 32 18 WZW 1024,4 10 0,0
13.10.2017 15:00:00 18,4 14,3 18,5 13 7 29 16 ZW 1024,4 10 0,0
13.10.2017 14:00:00 18,5 14,5 18,7 11 6 29 16 WZW 1024,6 10 0,0
13.10.2017 13:00:00 18,1 13,9 18,3 16 9 32 18 WZW 1024,5 10 0,0
13.10.2017 12:00:00 17,9 14,1 18,7 11 6 29 16 ZW 1024,2 10 0,0

tt = temperatuur
td = dauwpunt
tt 5cm = temperatuur 5cm
ff = windsnelheid
fx = windstoten
dd = windrichting
ppp = luchtdruk
vv = zicht
rr = neerslag

Weerstations in de omgeving